User: anonymous   Login
Location: Chakepay
(13.3931°S, 72.1925°W)
Time: 09:12:56
(UTC+00:00)
Language:

Cosmos 1707 Rocket - Orbit

View from above orbital plane
View from above orbital plane
View from above satellite
View from above satellite

Ground track
Ground track

The orbit data is extracted from the following two-line orbital elements,

1 16327U 85113B   20025.78680698  .00000076  00000-0  62253-5 0  9994
2 16327  82.5349 281.7928 0020593  87.0813 335.1165 14.83454872843101
Epoch (UTC): 25 January 2020 18:53:00
Eccentricity: 0.0020593
inclination: 82.5349°
perigee height: 604 km
apogee height: 633 km
right ascension of ascending node: 281.7928°
argument of perigee: 87.0813°
revolutions per day: 14.83454872
mean anomaly at epoch: 335.1165°
orbit number at epoch: 84310

The dashed part of the orbit path shows where the satellite is in the earth's shadow,  

DLR